Weather History for NZCH - October, 2013

Change the Weather History Date:

Thursday, October 24, 2013

  Actual Average Record
Temperature  
Mean Temperature 64 °F -  
Max Temperature 78 °F 61 °F 78 °F (2013)
Min Temperature 51 °F 42 °F 28 °F (1996)
Growing Degree Days 14 (Base 50)    
Moisture  
Dew Point 49 °F    
Average Humidity 59    
Maximum Humidity 94    
Minimum Humidity 32    
Precipitation  
Precipitation 0.00 in - - ()
Sea Level Pressure  
Sea Level Pressure 29.51 in    
Wind  
Wind Speed 13 mph ()    
Max Wind Speed 26 mph    
Max Gust Speed 43 mph    
Visibility 6.2 miles    
Events Rain    
Averages and records for this station are not official NWS values.
T = Trace of Precipitation, MM = Missing Value Source: Averaged Metar Reports

Daily Weather History Graph

Daily Weather History Graph

Search for Another Location

Airport or City:

Trip Planner

Search our weather history database for the weather conditions in past years. The results will help you decide how hot, cold, wet, or windy it might be!

Date:

Astronomy

Oct. 24, 2013 Rise Set
Actual Time 6:24 AM NZDT 8:04 PM NZDT
Civil Twilight 5:54 AM NZDT 8:34 PM NZDT
Nautical Twilight 5:17 AM NZDT 9:11 PM NZDT
Astronomical Twilight 4:37 AM NZDT 9:51 PM NZDT
Moon 12:05 AM NZDT (10/24) 9:47 AM NZDT (10/24)
Length of Visible Light 14h 40m
Length of Day
13h 40m
Waning Gibbous, 77% of the Moon is Illuminated
Oct 24
Waning Gibbous
Oct 27
Last Quarter
Nov 4
New
Nov 10
First Quarter
Nov 18
Full

Hourly Weather History & Observations

Time (NZDT) Temp. Dew Point Humidity Pressure Visibility Wind Dir Wind Speed Gust Speed Precip Events Conditions
12:00 AM 51.8 °F 50.0 °F 94% 29.86 in 6.2 mi ENE 9.2 mph - N/A   Light Drizzle
12:30 AM 51.8 °F 50.0 °F 94% 29.83 in 6.2 mi ENE 11.5 mph - N/A Rain Light Rain Showers
1:00 AM 51.8 °F 50.0 °F 94% 29.80 in 6.2 mi ENE 16.1 mph - N/A Rain Light Rain Showers
1:30 AM 51.8 °F 50.0 °F 94% 29.80 in 6.2 mi ENE 12.7 mph - N/A Rain Light Rain Showers
2:00 AM 51.8 °F 50.0 °F 94% 29.77 in 6.2 mi ENE 15.0 mph - N/A   Unknown
2:30 AM 51.8 °F 50.0 °F 94% 29.74 in 6.2 mi NE 15.0 mph - N/A   Unknown
3:00 AM 51.8 °F 50.0 °F 94% 29.71 in 6.2 mi ENE 15.0 mph - N/A   Unknown
3:30 AM 51.8 °F 50.0 °F 94% 29.71 in 6.2 mi NE 17.3 mph - N/A   Scattered Clouds
4:00 AM 51.8 °F 50.0 °F 94% 29.68 in 6.2 mi NE 17.3 mph - N/A   Mostly Cloudy
4:30 AM 51.8 °F 48.2 °F 88% 29.65 in 6.2 mi East 10.4 mph - N/A   Scattered Clouds
5:00 AM 51.8 °F 48.2 °F 88% 29.62 in 6.2 mi ENE 12.7 mph - N/A   Partly Cloudy
5:30 AM 53.6 °F 48.2 °F 82% 29.59 in 6.2 mi East 9.2 mph - N/A   Partly Cloudy
6:00 AM 53.6 °F 48.2 °F 82% 29.62 in 6.2 mi East 11.5 mph - N/A   Scattered Clouds
6:30 AM 55.4 °F 48.2 °F 77% 29.59 in 6.2 mi ENE 15.0 mph - N/A   Mostly Cloudy
7:00 AM 57.2 °F 48.2 °F 72% 29.59 in 6.2 mi ENE 12.7 mph - N/A   Scattered Clouds
7:30 AM 57.2 °F 50.0 °F 77% 29.59 in 6.2 mi ENE 11.5 mph - N/A   Unknown
8:00 AM 59.0 °F 50.0 °F 72% 29.59 in 6.2 mi NNE 5.8 mph - N/A   Scattered Clouds
8:30 AM 60.8 °F 50.0 °F 68% 29.56 in 6.2 mi NE 11.5 mph - N/A   Partly Cloudy
9:00 AM 64.4 °F 50.0 °F 59% 29.53 in 6.2 mi ENE 8.1 mph - N/A   Unknown
9:30 AM 68.0 °F 50.0 °F 52% 29.50 in 6.2 mi North 15.0 mph - N/A   Unknown
10:00 AM 66.2 °F 50.0 °F 56% 29.50 in 6.2 mi NE 16.1 mph - N/A   Unknown
10:30 AM 68.0 °F 51.8 °F 56% 29.47 in 6.2 mi ENE 15.0 mph - N/A   Unknown
11:00 AM 64.4 °F 53.6 °F 68% 29.53 in 6.2 mi NNE 13.8 mph - N/A Rain Light Rain
11:30 AM 66.2 °F 53.6 °F 64% 29.50 in 6.2 mi NNE 9.2 mph - N/A Rain Light Rain
12:00 PM 71.6 °F 53.6 °F 53% 29.50 in 6.2 mi NNW 19.6 mph - N/A   Unknown
12:30 PM 73.4 °F 53.6 °F 50% 29.47 in 6.2 mi NNW 17.3 mph 28.8 mph N/A   Unknown
1:00 PM 73.4 °F 51.8 °F 47% 29.42 in 6.2 mi North 24.2 mph 38.0 mph N/A   Unknown
1:30 PM 75.2 °F 53.6 °F 47% 29.39 in 6.2 mi NNW 25.3 mph 36.8 mph N/A   Unknown
2:00 PM 75.2 °F 51.8 °F 44% 29.39 in 6.2 mi NNW 24.2 mph 38.0 mph N/A   Unknown
2:30 PM 78.8 °F 51.8 °F 39% 29.36 in 6.2 mi NW 19.6 mph 34.5 mph N/A   Unknown
3:00 PM 78.8 °F 50.0 °F 36% 29.36 in 6.2 mi NW 20.7 mph 42.6 mph N/A   Unknown
3:30 PM 78.8 °F 50.0 °F 36% 29.33 in 6.2 mi NW 21.9 mph 33.4 mph N/A   Unknown
4:00 PM 78.8 °F 48.2 °F 34% 29.33 in 6.2 mi NW 26.5 mph 42.6 mph N/A   Unknown
4:30 PM 78.8 °F 48.2 °F 34% 29.33 in 6.2 mi WNW 19.6 mph 32.2 mph N/A   Unknown
5:00 PM 78.8 °F 48.2 °F 34% 29.30 in 6.2 mi NW 19.6 mph 32.2 mph N/A   Unknown
5:30 PM 78.8 °F 46.4 °F 32% 29.30 in 6.2 mi NW 20.7 mph 32.2 mph N/A   Unknown
6:00 PM 77.0 °F 46.4 °F 34% 29.33 in 6.2 mi NW 25.3 mph 39.1 mph N/A   Unknown
6:30 PM 75.2 °F 46.4 °F 36% 29.33 in 6.2 mi NW 24.2 mph - N/A   Unknown
7:00 PM 73.4 °F 46.4 °F 38% 29.36 in 6.2 mi NW 19.6 mph 35.7 mph N/A   Unknown
7:30 PM 71.6 °F 46.4 °F 41% 29.36 in 6.2 mi WNW 19.6 mph 34.5 mph N/A   Unknown
8:00 PM 71.6 °F 44.6 °F 38% 29.36 in 6.2 mi NW 18.4 mph 32.2 mph N/A   Unknown
8:30 PM 69.8 °F 44.6 °F 40% 29.39 in 6.2 mi NW 10.4 mph - N/A   Unknown
9:00 PM 68.0 °F 44.6 °F 43% 29.39 in 6.2 mi North 11.5 mph - N/A   Unknown
9:30 PM 69.8 °F 42.8 °F 38% 29.39 in 6.2 mi NW 20.7 mph - N/A   Unknown
10:00 PM 68.0 °F 42.8 °F 40% 29.39 in 6.2 mi NNW 5.8 mph - N/A   Unknown
10:30 PM 68.0 °F 42.8 °F 40% 29.39 in 6.2 mi NNE 4.6 mph - N/A   Unknown
11:00 PM 68.0 °F 41.0 °F 37% 29.36 in 6.2 mi NNW 12.7 mph - N/A   Unknown
11:30 PM 68.0 °F 39.2 °F 35% 29.39 in 6.2 mi NW 15.0 mph 31.1 mph N/A   Unknown